Ukiah, CA

10:10 AM PDT on July 26, 2017 (GMT -0700)
Ukiah Municipal

Weather History for KUKI - January, 2014

Change the Weather History Date:

Monday, January 27, 2014

  Actual Average Record
Temperature  
Mean Temperature 51 °F 48 °F  
Max Temperature 65 °F 58 °F 82 °F (1984)
Min Temperature 36 °F 37 °F 22 °F (1948)
Degree Days  
Heating Degree Days 14 18  
Month to date heating degree days 397 502  
Since 1 July heating degree days 1569 1732  
Cooling Degree Days 0 0  
Month to date cooling degree days 0 0  
Year to date cooling degree days 0 0  
Moisture  
Dew Point 34 °F    
Average Humidity 58    
Maximum Humidity 85    
Minimum Humidity 30    
Precipitation  
Precipitation 0.00 in 0.11 in 2.08 in (1981)
Month to date precipitation 0.18 6.56  
Year to date precipitation 0.18 6.56  
Since 1 July precipitation 2.10  
Snow  
Snow 0.00 in - - ()
Month to date snowfall 0.0  
Since 1 July snowfall 0.0  
Snow Depth 0.00 in    
Sea Level Pressure  
Sea Level Pressure 30.13 in    
Wind  
Wind Speed 1 mph (North)    
Max Wind Speed 13 mph    
Max Gust Speed 17 mph    
Visibility 10 miles    
Events      
T = Trace of Precipitation, MM = Missing Value Source: NWS Daily Summary

Daily Weather History Graph

Daily Weather History Graph

Search for Another Location

Airport or City:

Trip Planner

Search our weather history database for the weather conditions in past years. The results will help you decide how hot, cold, wet, or windy it might be!

Date:

Astronomy

Jan. 27, 2014 Rise Set
Actual Time 7:23 AM PST 5:28 PM PST
Civil Twilight 6:55 AM PST 5:56 PM PST
Nautical Twilight 6:22 AM PST 6:28 PM PST
Astronomical Twilight 5:51 AM PST 7:00 PM PST
Moon 4:10 AM PST (1/27) 2:20 PM PST (1/27)
Length of Visible Light 11h 01m
Length of Day
10h 04m
Waning Crescent, 14% of the Moon is Illuminated
Jan 27
Waning Crescent
Jan 30
New
Feb 6
First Quarter
Feb 14
Full
Feb 22
Last Quarter

Hourly Weather History & Observations

Time (PST) Temp. Dew Point Humidity Pressure Visibility Wind Dir Wind Speed Gust Speed Precip Events Conditions
12:56 AM 42.1 °F 30.9 °F 65% 30.09 in 10.0 mi Calm Calm - N/A   Clear
1:56 AM 39.0 °F 30.9 °F 73% 30.09 in 10.0 mi Calm Calm - N/A   Clear
2:56 AM 37.9 °F 30.9 °F 76% 30.10 in 10.0 mi Calm Calm - N/A   Clear
3:56 AM 37.0 °F 30.9 °F 79% 30.10 in 10.0 mi Calm Calm - N/A   Clear
4:56 AM 37.9 °F 32.0 °F 79% 30.10 in 10.0 mi Calm Calm - N/A   Clear
5:56 AM 37.9 °F 32.0 °F 79% 30.09 in 10.0 mi Calm Calm - N/A   Clear
6:56 AM 39.9 °F 32.0 °F 73% 30.13 in 10.0 mi Calm Calm - N/A   Clear
7:56 AM 37.9 °F 33.1 °F 83% 30.15 in 10.0 mi Calm Calm - N/A   Clear
8:56 AM 43.0 °F 35.1 °F 74% 30.17 in 10.0 mi Calm Calm - N/A   Clear
9:56 AM 50.0 °F 34.0 °F 54% 30.17 in 10.0 mi Calm Calm - N/A   Clear
10:56 AM 55.0 °F 34.0 °F 45% 30.17 in 10.0 mi Calm Calm - N/A   Clear
11:56 AM 60.1 °F 33.1 °F 36% 30.15 in 10.0 mi North 3.5 mph - N/A   Clear
12:56 PM 62.1 °F 32.0 °F 32% 30.13 in 10.0 mi Calm Calm - N/A   Clear
1:56 PM 64.0 °F 32.0 °F 30% 30.11 in 10.0 mi Calm Calm - N/A   Clear
2:56 PM 64.0 °F 32.0 °F 30% 30.10 in 10.0 mi Calm Calm - N/A   Scattered Clouds
3:56 PM 64.9 °F 35.1 °F 33% 30.11 in 10.0 mi Calm Calm - N/A   Partly Cloudy
4:56 PM 64.0 °F 36.0 °F 35% 30.12 in 10.0 mi North 11.5 mph - N/A   Overcast
5:56 PM 62.1 °F 37.0 °F 39% 30.13 in 10.0 mi North 9.2 mph - N/A   Mostly Cloudy
6:56 PM 61.0 °F 37.9 °F 42% 30.14 in 10.0 mi Variable 3.5 mph - N/A   Mostly Cloudy
7:56 PM 57.9 °F 37.9 °F 47% 30.15 in 10.0 mi Calm Calm - N/A   Overcast
8:56 PM 57.0 °F 39.0 °F 51% 30.17 in 10.0 mi Calm Calm - N/A   Overcast
9:56 PM 55.0 °F 39.0 °F 55% 30.16 in 10.0 mi Calm Calm - N/A   Scattered Clouds
10:56 PM 54.0 °F 39.0 °F 57% 30.18 in 10.0 mi Calm Calm - N/A   Scattered Clouds
11:56 PM 52.0 °F 39.0 °F 61% 30.18 in 10.0 mi Calm Calm - N/A   Scattered Clouds